Find Starlink 32122

NORAD ID: 60285 Int'l Des: 2024-132 Owner: SPXS Country: US Constellation: starlink operational
LEOCIRCULAR

Current View

Loading 3D Globe...

About Starlink 32122

Starlink 32122 (NORAD 60285) is a starlink constellation satellite (v2 mini) launched Jul 28, 2024 by SPXS of US. It operates in LEO, CIRCULAR orbit with a mass of 730.00 kg.

Upcoming Passes

Passes for default location (London). Set your location on the main map for personalized predictions.

Altitude History

Loading altitude history...

Two-Line Element Set

1 60285U 24132H 26237.69109897 -.00001113 00000-0 -24100-4 0 9991
2 60285 53.1587 346.8445 0001683 79.9708 280.1483 15.31691662117447
Epoch: Aug 25, 2026 • Age: 18 hours

Current Status

Altitude 488.3 km
Apogee / Perigee N/A
Velocity 7.62 km/s
Sub-Earth Point -48.29°S, 145.61°E
Launch Date Jul 28, 2024
Age 2 years
Type internet

Technical Details

Classification Payload
Mass 730.00 kg
Dry Mass 700.00 kg
Total Mass 730.00 kg
Length 0.30 m
Diameter 4.10 m
Span 29.00 m
Shape Box + pan
Manufacturer SPXS
Bus Type Starlink V2M
Phase Status In Orbit
Owner/State SPXS/US

Most Searched